Flag for Germany Weather past 2 weeks in Görlitz, Saxony, Germany

Now
87 °F

Passing clouds.


Feels Like: 86 °F
Forecast: 61 / 75 °F
Wind: 3 mph from Southeast

Location: Goerlitz

Current Time: Jul 7, 2015 at 8:08:50 PM

Latest Report: Jul 7, 2015 at 8:00 PM


Visibility: 19 mi

Pressure: 29.70 "Hg

Humidity: 39%

Dew point: 58 °F

Location of GörlitzLocation

Historic Weather in Görlitz — Graph

°F

Görlitz temperature yesterday

Maximum temperature yesterday: 81 °F (at 1:00 AM)
Minimum temperature yesterday: 61 °F (at 11:00 PM)
Average temperature yesterday: 72 °F

Past Weeks' High & Low Weather Summary

 TemperatureHumidityPressure
High94 °F (Jul 5, 5:00 PM)98% (Jun 25, 5:00 AM)30.30 "Hg (Jun 25, 5:00 AM)
Low41 °F (Jun 25, 4:00 AM)26% (Jul 4, 5:00 PM)29.66 "Hg (Jun 23, 7:00 AM)
Average67 °F66%30.10 "Hg
* Reported Jun 22 6:00 PM — Jul 7 6:00 PM, Görlitz, Weather by CustomWeather, © 2015

Note: Actual official high and low records may vary slightly from our data, if they occured in-between our weather recording intervals... More about our weather records

Advertising

Görlitz weather history for previous 24 hours

 ConditionsComfort  
Time TempWeatherWind HumidityBarometerVisibility
6:00 PM
Tue, Jul 7
89 °FSunny.7 mph29%29.77 "Hg16 mi
5:00 PM89 °FSunny.6 mph31%29.80 "Hg16 mi
4:00 PM89 °FPassing clouds.6 mph30%29.83 "Hg18 mi
3:00 PM89 °FScattered clouds.6 mph30%29.85 "Hg19 mi
2:00 PM86 °FPartly sunny.5 mph28%29.89 "Hg22 mi
1:00 PM84 °FPassing clouds.5 mph32%29.92 "Hg22 mi
12:00 PM83 °FPassing clouds.3 mph32%29.95 "Hg19 mi
11:00 AM80 °FPassing clouds.5 mph39%29.97 "Hg25 mi
10:00 AM77 °FSunny.6 mph44%29.99 "Hg22 mi
9:00 AM72 °FSunny.2 mph55%30.01 "Hg25 mi
8:00 AM68 °FSunny.3 mph67%30.03 "Hg25 mi
7:00 AM63 °FPassing clouds.1 mph81%30.06 "Hg25 mi
6:00 AM57 °FSunny.2 mph93%30.07 "Hg25 mi
5:00 AM55 °FFog.1 mph96%30.08 "Hg19 mi
4:00 AM56 °FFog.1 mph96%30.09 "Hg19 mi
3:00 AM56 °FClear.2 mph95%30.09 "Hg19 mi
2:00 AM57 °FClear.1 mph89%30.10 "Hg19 mi
1:00 AM56 °FClear.1 mph88%30.11 "Hg19 mi
12:00 AM62 °FClear.1 mph73%30.11 "Hg19 mi
11:00 PM
Mon, Jul 6
61 °FClear.1 mph77%30.11 "Hg25 mi
10:00 PM66 °FClear.1 mph60%30.11 "Hg25 mi
9:00 PM70 °FSunny.2 mph56%30.09 "Hg25 mi
8:00 PM74 °FSunny.2 mph46%30.08 "Hg25 mi
Weather by CustomWeather, © 2015

See weather overviewHow to use our weather pages